Torna al catalogo

IRIDIUM 33 DEB

AttivoPO
NORAD 36390·DEBRIS·🇺🇸 United States

Lanciato Sep 14, 1997 da Baikonur Cosmodrome

Loading…

Prossimi Passaggi (prossime 24 ore)

TLE

AggiornatoSource: Space-Track

Epoca: Sep 13, 2026, 12:06 UTC

1 36390U 97051VU  26256.50484225  .00004603  00000-0  64949-3 0  9992
2 36390  86.2946 173.1149 0027169 300.0979  59.7547 14.76771023703136

Traccia IRIDIUM 33 DEB in tempo reale con AllMySat

Download on the App Store